• In Hungary
  • List of Countries
  • For 7 days
  • Water Temperature
  • Satellite Maps
  • Weather Map
  • News
  • Weather Widgets
  • user-avatar
    Login

    Hourly Weather Taldy Kurgan

    Today, 24 September, Monday

    Time Temperature Precipitation Wind Pressure Humidity
    00:00 +20°C° 0.2 mm 2 mps 714 mmHg 38%
    01:00 +19°C° 0.2 mm 3 mps 714 mmHg 42%
    02:00 +19°C° 0.2 mm 4 mps 715 mmHg 45%
    03:00 +18°C° 0.1 mm 4 mps 715 mmHg 52%
    04:00 +17°C° 0.1 mm 4 mps 715 mmHg 58%
    05:00 +15°C° 0.1 mm 4 mps 715 mmHg 64%
    06:00 +17°C° 0.1 mm 4 mps 715 mmHg 62%
    07:00 +17°C° 0.1 mm 4 mps 715 mmHg 60%
    08:00 +18°C° 0.1 mm 4 mps 716 mmHg 58%
    09:00 +19°C° 0.5 mm 5 mps 716 mmHg 54%
    10:00 +20°C° 0.5 mm 5 mps 716 mmHg 49%
    11:00 +20°C° 0.5 mm 5 mps 716 mmHg 45%
    12:00 +20°C° 0.5 mm 5 mps 715 mmHg 46%
    13:00 +20°C° 0.5 mm 5 mps 715 mmHg 48%
    14:00 +19°C° 0.5 mm 5 mps 715 mmHg 49%
    15:00 +19°C° 0.4 mm 5 mps 716 mmHg 50%
    16:00 +18°C° 0.4 mm 4 mps 716 mmHg 51%
    17:00 +17°C° 0.4 mm 3 mps 716 mmHg 52%
    18:00 +17°C° 0.1 mm 3 mps 717 mmHg 54%
    19:00 +16°C° 0.1 mm 2 mps 717 mmHg 56%
    20:00 +16°C° 0.1 mm 2 mps 718 mmHg 58%
    21:00 +15°C° 0.5 mm 2 mps 718 mmHg 62%
    22:00 +14°C° 0.5 mm 2 mps 718 mmHg 66%
    23:00 +14°C° 0.5 mm 2 mps 718 mmHg 69%

    Tomorrow, 25 September, Tuesday

    Time Temperature Precipitation Wind Pressure Humidity
    00:00 +14°C° 0.2 mm 2 mps 718 mmHg 70%
    01:00 +13°C° 0.2 mm 2 mps 718 mmHg 72%
    02:00 +13°C° 0.2 mm 2 mps 718 mmHg 73%
    03:00 +13°C° 0 mm 2 mps 719 mmHg 73%
    04:00 +12°C° 0 mm 2 mps 719 mmHg 72%
    05:00 +12°C° 0 mm 2 mps 719 mmHg 72%
    06:00 +13°C° 0 mm 2 mps 719 mmHg 65%
    07:00 +15°C° 0 mm 2 mps 719 mmHg 59%
    08:00 +16°C° 0 mm 2 mps 720 mmHg 52%
    09:00 +18°C° 0 mm 1 mps 720 mmHg 47%
    10:00 +19°C° 0 mm 1 mps 720 mmHg 42%
    11:00 +20°C° 0 mm 1 mps 720 mmHg 37%
    12:00 +19°C° 0 mm 2 mps 720 mmHg 35%
    13:00 +20°C° 0 mm 2 mps 719 mmHg 33%
    14:00 +20°C° 0 mm 3 mps 719 mmHg 32%
    15:00 +20°C° 0 mm 3 mps 719 mmHg 34%
    16:00 +19°C° 0 mm 4 mps 719 mmHg 36%
    17:00 +19°C° 0 mm 5 mps 719 mmHg 38%
    18:00 +17°C° 0 mm 5 mps 719 mmHg 41%
    19:00 +16°C° 0 mm 5 mps 720 mmHg 44%
    20:00 +14°C° 0 mm 4 mps 720 mmHg 46%
    21:00 +14°C° 0 mm 4 mps 720 mmHg 46%
    22:00 +13°C° 0 mm 4 mps 719 mmHg 46%
    23:00 +13°C° 0 mm 3 mps 719 mmHg 45%

    Day after tomorrow, 26 September, Wednesday

    Time Temperature Precipitation Wind Pressure Humidity
    00:00 +13°C° 0 mm 3 mps 719 mmHg 45%
    01:00 +12°C° 0 mm 3 mps 719 mmHg 45%
    02:00 +12°C° 0 mm 3 mps 718 mmHg 45%
    03:00 +12°C° 0 mm 3 mps 719 mmHg 45%
    04:00 +12°C° 0 mm 3 mps 719 mmHg 44%
    05:00 +11°C° 0 mm 3 mps 719 mmHg 44%
    06:00 +13°C° 0 mm 4 mps 719 mmHg 41%
    07:00 +14°C° 0 mm 4 mps 719 mmHg 39%
    08:00 +15°C° 0 mm 5 mps 719 mmHg 36%
    09:00 +17°C° 0 mm 5 mps 719 mmHg 33%
    10:00 +19°C° 0 mm 5 mps 719 mmHg 31%
    11:00 +21°C° 0 mm 5 mps 719 mmHg 29%
    12:00 +21°C° 0 mm 5 mps 719 mmHg 29%
    13:00 +22°C° 0 mm 5 mps 718 mmHg 28%
    14:00 +22°C° 0 mm 6 mps 718 mmHg 28%
    15:00 +22°C° 0 mm 5 mps 718 mmHg 30%
    16:00 +21°C° 0 mm 5 mps 718 mmHg 32%
    17:00 +20°C° 0 mm 5 mps 718 mmHg 34%
    18:00 +19°C° 0 mm 5 mps 718 mmHg 37%
    19:00 +18°C° 0 mm 4 mps 718 mmHg 39%
    20:00 +17°C° 0 mm 4 mps 718 mmHg 42%
    21:00 +16°C° 0 mm 3 mps 718 mmHg 42%
    22:00 +16°C° 0 mm 3 mps 717 mmHg 42%
    23:00 +14°C° 0 mm 3 mps 717 mmHg 42%

    27 September, Thursday

    Time Temperature Precipitation Wind Pressure Humidity
    00:00 +14°C° 0 mm 3 mps 717 mmHg 43%
    01:00 +14°C° 0 mm 3 mps 717 mmHg 43%
    02:00 +13°C° 0 mm 3 mps 716 mmHg 43%
    03:00 +13°C° 0 mm 3 mps 717 mmHg 43%
    04:00 +13°C° 0 mm 3 mps 717 mmHg 43%
    05:00 +12°C° 0 mm 3 mps 717 mmHg 43%
    06:00 +14°C° 0 mm 3 mps 717 mmHg 40%
    07:00 +16°C° 0 mm 3 mps 717 mmHg 36%
    08:00 +18°C° 0 mm 3 mps 717 mmHg 32%
    09:00 +19°C° 0 mm 3 mps 717 mmHg 29%
    10:00 +21°C° 0 mm 3 mps 717 mmHg 26%
    11:00 +22°C° 0 mm 3 mps 717 mmHg 23%
    12:00 +23°C° 0 mm 4 mps 717 mmHg 22%
    13:00 +25°C° 0 mm 4 mps 717 mmHg 21%
    14:00 +25°C° 0 mm 4 mps 716 mmHg 20%
    15:00 +23°C° 0 mm 4 mps 716 mmHg 21%
    16:00 +24°C° 0 mm 3 mps 716 mmHg 23%
    17:00 +22°C° 0 mm 3 mps 716 mmHg 25%
    18:00 +21°C° 0 mm 3 mps 716 mmHg 27%
    19:00 +19°C° 0 mm 3 mps 716 mmHg 28%
    20:00 +18°C° 0 mm 2 mps 716 mmHg 30%
    21:00 +17°C° 0 mm 2 mps 716 mmHg 31%
    22:00 +17°C° 0 mm 2 mps 716 mmHg 31%
    23:00 +17°C° 0 mm 2 mps 715 mmHg 32%

    28 September, Friday

    Time Temperature Precipitation Wind Pressure Humidity
    00:00 +16°C° 0 mm 2 mps 715 mmHg 32%
    01:00 +16°C° 0 mm 2 mps 715 mmHg 32%
    02:00 +16°C° 0 mm 2 mps 715 mmHg 32%
    03:00 +15°C° 0 mm 2 mps 715 mmHg 32%
    04:00 +15°C° 0 mm 2 mps 715 mmHg 32%
    05:00 +15°C° 0 mm 2 mps 715 mmHg 32%
    06:00 +17°C° 0 mm 2 mps 715 mmHg 29%
    07:00 +19°C° 0 mm 2 mps 716 mmHg 26%
    08:00 +20°C° 0 mm 2 mps 716 mmHg 23%
    09:00 +23°C° 0 mm 2 mps 716 mmHg 20%
    10:00 +24°C° 0 mm 2 mps 716 mmHg 18%
    11:00 +26°C° 0 mm 2 mps 717 mmHg 15%
    12:00 +26°C° 0 mm 2 mps 717 mmHg 15%
    13:00 +27°C° 0 mm 2 mps 716 mmHg 15%
    14:00 +28°C° 0 mm 3 mps 716 mmHg 15%
    15:00 +27°C° 0 mm 2 mps 716 mmHg 17%
    16:00 +26°C° 0 mm 2 mps 716 mmHg 19%
    17:00 +25°C° 0 mm 2 mps 716 mmHg 21%
    18:00 +24°C° 0 mm 2 mps 716 mmHg 23%
    19:00 +23°C° 0 mm 2 mps 717 mmHg 24%
    20:00 +20°C° 0 mm 3 mps 717 mmHg 25%
    21:00 +20°C° 0 mm 3 mps 717 mmHg 25%
    22:00 +20°C° 0 mm 3 mps 717 mmHg 25%
    23:00 +19°C° 0 mm 4 mps 717 mmHg 26%

    29 September, Saturday

    Time Temperature Precipitation Wind Pressure Humidity
    00:00 +19°C° 0 mm 4 mps 717 mmHg 26%
    01:00 +19°C° 0 mm 4 mps 717 mmHg 26%
    02:00 +18°C° 0 mm 4 mps 717 mmHg 27%
    03:00 +18°C° 0 mm 4 mps 717 mmHg 28%
    04:00 +18°C° 0 mm 3 mps 718 mmHg 29%
    05:00 +17°C° 0 mm 3 mps 718 mmHg 31%
    06:00 +19°C° 0 mm 3 mps 718 mmHg 29%
    07:00 +20°C° 0 mm 3 mps 719 mmHg 28%
    08:00 +22°C° 0 mm 3 mps 719 mmHg 26%
    09:00 +23°C° 0 mm 4 mps 719 mmHg 24%
    10:00 +25°C° 0 mm 4 mps 719 mmHg 23%
    11:00 +26°C° 0 mm 4 mps 720 mmHg 21%
    12:00 +27°C° 0 mm 4 mps 719 mmHg 20%
    13:00 +27°C° 0 mm 4 mps 719 mmHg 19%
    14:00 +27°C° 0 mm 4 mps 719 mmHg 19%
    15:00 +26°C° 0 mm 3 mps 719 mmHg 20%
    16:00 +25°C° 0 mm 3 mps 719 mmHg 21%
    17:00 +24°C° 0 mm 2 mps 719 mmHg 22%
    18:00 +23°C° 0 mm 2 mps 719 mmHg 24%
    19:00 +21°C° 0 mm 2 mps 719 mmHg 25%
    20:00 +19°C° 0 mm 2 mps 719 mmHg 27%
    21:00 +19°C° 0 mm 2 mps 719 mmHg 28%
    22:00 +18°C° 0 mm 2 mps 719 mmHg 29%
    23:00 +17°C° 0 mm 2 mps 719 mmHg 31%
    Show more

    3.3.7123123